Zurück zum Katalog

STARLINK-31693

AktivKommunikationVLEO
NORAD 59441·PAYLOAD·🇺🇸 United States

Gestartet Apr 7, 2024 von Vandenberg Space Force Base

Loading…

Nächste Überflüge (nächste 24 Stunden)

TLE

AktuellSource: CelesTrak SupGP

Epoche: Sep 15, 2026, 02:41 UTC

1 59441C 24065W   26258.11229167  .00044709  00000+0  13211-2 0  2583
2 59441  53.1573 119.0924 0001346  93.7904 113.3318 15.34363271    17

Verfolge STARLINK-31693 in Echtzeit mit AllMySat

Download on the App Store